When you browse on this site, cookies collect data to enhance your experience and personalize the content and advertising you see.
Visit our Privacy Policy to learn more. By continuing to use the site, you agree to this use of cookies and data.
  • In Österreich
  • Länderverzeichnis
  • Für 7 Tage
  • Wassertemperatur
  • Satellitenkarten
  • Wetterkarte
  • News
  • Widgets
  • user-avatar
    Anmelden

    Stündliche Wetter Escaldes-Engordany

    Heute, 18 Januar, Freitag

    Zeit Temperatur Niederschläge Wind Luftdruck Luftfeuchtigkeit
    00:00 -5°C° 0 mm 2 m/S 635 mmHg 87%
    01:00 -5°C° 0 mm 2 m/S 635 mmHg 87%
    02:00 -5°C° 0 mm 2 m/S 635 mmHg 87%
    03:00 -6°C° 0 mm 2 m/S 634 mmHg 87%
    04:00 -6°C° 0 mm 2 m/S 634 mmHg 86%
    05:00 -6°C° 0 mm 2 m/S 634 mmHg 84%
    06:00 -7°C° 0 mm 2 m/S 634 mmHg 83%
    07:00 -6°C° 0 mm 2 m/S 634 mmHg 77%
    08:00 -2°C° 0 mm 1 m/S 635 mmHg 72%
    09:00 -1°C° 0 mm 1 m/S 635 mmHg 66%
    10:00 0°C° 0 mm 1 m/S 635 mmHg 60%
    11:00 +1°C° 0 mm 1 m/S 636 mmHg 55%
    12:00 +2°C° 0 mm 1 m/S 636 mmHg 49%
    13:00 +2°C° 0 mm 1 m/S 635 mmHg 52%
    14:00 +2°C° 0 mm 1 m/S 635 mmHg 54%
    15:00 +2°C° 0 mm 1 m/S 635 mmHg 56%
    16:00 +1°C° 0 mm 1 m/S 634 mmHg 63%
    17:00 0°C° 0 mm 1 m/S 634 mmHg 70%
    18:00 -1°C° 0 mm 1 m/S 634 mmHg 77%
    19:00 -3°C° 0 mm 0 m/S 634 mmHg 77%
    20:00 -3°C° 0 mm 0 m/S 634 mmHg 76%
    21:00 -3°C° 0 mm 0 m/S 634 mmHg 76%
    22:00 -3°C° 0 mm 0 m/S 634 mmHg 77%
    23:00 -3°C° 0 mm 1 m/S 633 mmHg 78%

    Morgen, 19 Januar, Samstag

    Zeit Temperatur Niederschläge Wind Luftdruck Luftfeuchtigkeit
    00:00 -3°C° 0 mm 1 m/S 633 mmHg 79%
    01:00 -3°C° 0 mm 1 m/S 633 mmHg 78%
    02:00 -4°C° 0 mm 1 m/S 633 mmHg 78%
    03:00 -4°C° 0 mm 1 m/S 633 mmHg 77%
    04:00 -4°C° 0 mm 1 m/S 633 mmHg 77%
    05:00 -3°C° 0 mm 1 m/S 633 mmHg 76%
    06:00 -3°C° 0 mm 1 m/S 632 mmHg 76%
    07:00 -2°C° 0 mm 1 m/S 633 mmHg 72%
    08:00 -1°C° 0 mm 1 m/S 634 mmHg 68%
    09:00 0°C° 0 mm 0 m/S 634 mmHg 64%
    10:00 +2°C° 0 mm 1 m/S 634 mmHg 60%
    11:00 +3°C° 0 mm 1 m/S 634 mmHg 57%
    12:00 +3°C° 0 mm 2 m/S 634 mmHg 53%
    13:00 +3°C° 0 mm 2 m/S 634 mmHg 55%
    14:00 +2°C° 0 mm 2 m/S 633 mmHg 57%
    15:00 +2°C° 0 mm 2 m/S 632 mmHg 60%
    16:00 +1°C° 0 mm 2 m/S 631 mmHg 67%
    17:00 -1°C° 0 mm 2 m/S 631 mmHg 74%
    18:00 -3°C° 0 mm 2 m/S 630 mmHg 80%
    19:00 -3°C° 0.3 mm 2 m/S 630 mmHg 84%
    20:00 -3°C° 0.3 mm 2 m/S 630 mmHg 87%
    21:00 -3°C° 0.3 mm 2 m/S 630 mmHg 91%
    22:00 -1°C° 0.2 mm 1 m/S 630 mmHg 91%
    23:00 -1°C° 0.2 mm 1 m/S 629 mmHg 92%

    übermorgen, 20 Januar, Sonntag

    Zeit Temperatur Niederschläge Wind Luftdruck Luftfeuchtigkeit
    00:00 -1°C° 0.2 mm 1 m/S 629 mmHg 93%
    01:00 -1°C° 0 mm 1 m/S 629 mmHg 91%
    02:00 -1°C° 0 mm 1 m/S 629 mmHg 90%
    03:00 -1°C° 0 mm 1 m/S 629 mmHg 89%
    04:00 -1°C° 0.1 mm 1 m/S 629 mmHg 88%
    05:00 -2°C° 0.1 mm 2 m/S 630 mmHg 88%
    06:00 -2°C° 0.1 mm 2 m/S 630 mmHg 87%
    07:00 -2°C° 0.1 mm 2 m/S 631 mmHg 85%
    08:00 -1°C° 0.1 mm 2 m/S 631 mmHg 83%
    09:00 -1°C° 0.1 mm 3 m/S 632 mmHg 81%
    10:00 0°C° 0.1 mm 3 m/S 632 mmHg 77%
    11:00 +1°C° 0.1 mm 3 m/S 633 mmHg 73%
    12:00 +1°C° 0.1 mm 3 m/S 633 mmHg 69%
    13:00 +1°C° 0 mm 3 m/S 633 mmHg 68%
    14:00 +1°C° 0 mm 3 m/S 633 mmHg 66%
    15:00 0°C° 0 mm 3 m/S 633 mmHg 65%
    16:00 -1°C° 0 mm 3 m/S 633 mmHg 72%
    17:00 -4°C° 0 mm 3 m/S 632 mmHg 78%
    18:00 -4°C° 0 mm 2 m/S 632 mmHg 85%
    19:00 -4°C° 0 mm 2 m/S 633 mmHg 85%
    20:00 -5°C° 0 mm 2 m/S 633 mmHg 85%
    21:00 -5°C° 0 mm 2 m/S 633 mmHg 85%
    22:00 -5°C° 0 mm 2 m/S 633 mmHg 86%
    23:00 -4°C° 0 mm 2 m/S 634 mmHg 86%

    21 Januar, Montag

    Zeit Temperatur Niederschläge Wind Luftdruck Luftfeuchtigkeit
    00:00 -4°C° 0 mm 2 m/S 634 mmHg 86%
    01:00 -4°C° 0.2 mm 2 m/S 634 mmHg 86%
    02:00 -3°C° 0.2 mm 2 m/S 634 mmHg 86%
    03:00 -3°C° 0.2 mm 2 m/S 635 mmHg 86%
    04:00 -3°C° 0.2 mm 2 m/S 635 mmHg 87%
    05:00 -3°C° 0.2 mm 2 m/S 635 mmHg 88%
    06:00 -4°C° 0.2 mm 2 m/S 635 mmHg 88%
    07:00 -3°C° 0.2 mm 2 m/S 635 mmHg 84%
    08:00 -4°C° 0.2 mm 3 m/S 636 mmHg 81%
    09:00 -2°C° 0.2 mm 3 m/S 636 mmHg 77%
    10:00 -2°C° 0.1 mm 3 m/S 636 mmHg 73%
    11:00 -1°C° 0.1 mm 3 m/S 637 mmHg 69%
    12:00 -2°C° 0.1 mm 4 m/S 637 mmHg 66%
    13:00 -2°C° 0.1 mm 4 m/S 637 mmHg 66%
    14:00 -2°C° 0.1 mm 4 m/S 636 mmHg 67%
    15:00 -2°C° 0.1 mm 4 m/S 636 mmHg 68%
    16:00 -4°C° 0 mm 3 m/S 636 mmHg 73%
    17:00 -5°C° 0 mm 3 m/S 636 mmHg 79%
    18:00 -7°C° 0 mm 3 m/S 636 mmHg 85%
    19:00 -7°C° 0 mm 3 m/S 636 mmHg 85%
    20:00 -7°C° 0 mm 3 m/S 636 mmHg 85%
    21:00 -8°C° 0 mm 3 m/S 636 mmHg 85%
    22:00 -8°C° 0 mm 3 m/S 636 mmHg 80%
    23:00 -9°C° 0 mm 3 m/S 635 mmHg 76%

    22 Januar, Dienstag

    Zeit Temperatur Niederschläge Wind Luftdruck Luftfeuchtigkeit
    00:00 -9°C° 0 mm 3 m/S 635 mmHg 71%
    01:00 -10°C° 0 mm 3 m/S 635 mmHg 67%
    02:00 -9°C° 0 mm 2 m/S 634 mmHg 62%
    03:00 -9°C° 0 mm 2 m/S 633 mmHg 57%
    04:00 -8°C° 0 mm 2 m/S 633 mmHg 59%
    05:00 -8°C° 0 mm 2 m/S 633 mmHg 60%
    06:00 -8°C° 0 mm 2 m/S 632 mmHg 62%
    07:00 -6°C° 0 mm 2 m/S 632 mmHg 65%
    08:00 -5°C° 0 mm 2 m/S 633 mmHg 69%
    09:00 -3°C° 0 mm 2 m/S 633 mmHg 72%
    10:00 -2°C° 0.3 mm 2 m/S 632 mmHg 71%
    11:00 -1°C° 0.3 mm 2 m/S 631 mmHg 70%
    12:00 +1°C° 0.3 mm 2 m/S 631 mmHg 69%
    13:00 -1°C° 0.8 mm 2 m/S 630 mmHg 74%
    14:00 -1°C° 0.8 mm 2 m/S 629 mmHg 79%
    15:00 -2°C° 0.8 mm 2 m/S 628 mmHg 84%
    16:00 -3°C° 0.8 mm 2 m/S 628 mmHg 86%
    17:00 -4°C° 0.8 mm 3 m/S 627 mmHg 88%
    18:00 -5°C° 0.8 mm 3 m/S 627 mmHg 89%
    19:00 -6°C° 0.4 mm 3 m/S 627 mmHg 89%
    20:00 -5°C° 0.4 mm 2 m/S 627 mmHg 88%
    21:00 -5°C° 0.4 mm 2 m/S 627 mmHg 87%
    22:00 -5°C° 0.7 mm 2 m/S 626 mmHg 88%
    23:00 -6°C° 0.7 mm 2 m/S 625 mmHg 89%

    23 Januar, Mittwoch

    Zeit Temperatur Niederschläge Wind Luftdruck Luftfeuchtigkeit
    00:00 -6°C° 0.7 mm 2 m/S 625 mmHg 90%
    01:00 -6°C° 1 mm 2 m/S 624 mmHg 92%
    02:00 -4°C° 1 mm 1 m/S 623 mmHg 93%
    03:00 -4°C° 1 mm 1 m/S 622 mmHg 95%
    04:00 -4°C° 1.7 mm 1 m/S 621 mmHg 95%
    05:00 -4°C° 1.7 mm 1 m/S 621 mmHg 95%
    06:00 -5°C° 1.7 mm 2 m/S 621 mmHg 94%
    07:00 -3°C° 1.4 mm 1 m/S 620 mmHg 94%
    08:00 -3°C° 1.4 mm 1 m/S 620 mmHg 93%
    09:00 -3°C° 1.4 mm 1 m/S 620 mmHg 93%
    10:00 -5°C° 1.5 mm 2 m/S 620 mmHg 91%
    11:00 -5°C° 1.5 mm 2 m/S 619 mmHg 90%
    12:00 -6°C° 1.5 mm 3 m/S 619 mmHg 88%
    13:00 -6°C° 0.8 mm 3 m/S 619 mmHg 88%
    14:00 -7°C° 0.8 mm 4 m/S 619 mmHg 89%
    15:00 -7°C° 0.8 mm 4 m/S 619 mmHg 89%
    16:00 -8°C° 0.7 mm 4 m/S 619 mmHg 89%
    17:00 -9°C° 0.7 mm 4 m/S 619 mmHg 89%
    18:00 -9°C° 0.7 mm 4 m/S 619 mmHg 89%
    19:00 -8°C° 0.6 mm 3 m/S 619 mmHg 90%
    20:00 -8°C° 0.6 mm 3 m/S 620 mmHg 91%
    21:00 -9°C° 0.6 mm 3 m/S 620 mmHg 92%
    22:00 -8°C° 1 mm 3 m/S 620 mmHg 92%
    23:00 -9°C° 1 mm 4 m/S 620 mmHg 92%
    Mehr zeigen